This is the latest recevied weather packets stored in our database for station/object DG1ROH. If no packets are shown the sender has not sent any weather packets the latest 10 day(s).
| Time | Temp. | Humidity | Pressure | Rain* | Wind** | Luminosity | Snow |
|---|---|---|---|---|---|---|---|
| 1777220762 | 13.33° C | 32% | 1023.5 hPa | 0 mm | - | 63 W/m² | - |
| 1777220640 | 13.33° C | 32% | 1023.5 hPa | 0 mm | - | 70 W/m² | - |
| 1777220519 | 13.33° C | 32% | 1023.5 hPa | 0 mm | - | 72 W/m² | - |
| 1777220400 | 13.33° C | 33% | 1023.5 hPa | 0 mm | - | 128 W/m² | - |
| 1777220279 | 13.33° C | 33% | 1023.4 hPa | 0 mm | - | 179 W/m² | - |
| 1777220160 | 13.33° C | 32% | 1023.4 hPa | 0 mm | - | 149 W/m² | - |
| 1777220040 | 13.33° C | 33% | 1023.5 hPa | 0 mm | - | 139 W/m² | - |
| 1777219919 | 13.33° C | 33% | 1023.4 hPa | 0 mm | - | 139 W/m² | - |
| 1777219799 | 13.33° C | 33% | 1023.4 hPa | 0 mm | - | 121 W/m² | - |
| 1777219680 | 13.89° C | 33% | 1023.4 hPa | 0 mm | - | 199 W/m² | - |
| 1777219559 | 13.89° C | 33% | 1023.4 hPa | 0 mm | - | 93 W/m² | - |
| 1777219443 | 13.89° C | 36% | 1023.4 hPa | 0 mm | - | 144 W/m² | - |
| 1777219319 | 13.89° C | 33% | 1023.5 hPa | 0 mm | - | 137 W/m² | - |
| 1777219200 | 13.89° C | 34% | 1023.5 hPa | 0 mm | - | 207 W/m² | - |
| 1777219080 | 13.89° C | 33% | 1023.5 hPa | 0 mm | - | 83 W/m² | - |
| 1777218960 | 13.89° C | 33% | 1023.4 hPa | 0 mm | - | 116 W/m² | - |
| 1777218838 | 13.89° C | 32% | 1023.4 hPa | 0 mm | - | 158 W/m² | - |
| 1777218712 | 13.89° C | 33% | 1023.5 hPa | 0 mm | - | 104 W/m² | - |
| 1777218591 | 13.89° C | 33% | 1023.4 hPa | 0 mm | - | 93 W/m² | - |
| 1777218472 | 13.89° C | 33% | 1023.4 hPa | 0 mm | - | 98 W/m² | - |
| 1777218352 | 13.89° C | 32% | 1023.4 hPa | 0 mm | - | 95 W/m² | - |
| 1777218232 | 13.89° C | 33% | 1023.5 hPa | 0 mm | - | 91 W/m² | - |
| 1777218111 | 13.89° C | 36% | 1023.5 hPa | 0 mm | - | 123 W/m² | - |
| 1777217992 | 13.89° C | 35% | 1023.4 hPa | 0 mm | - | 137 W/m² | - |
| 1777217871 | 13.89° C | 39% | 1023.4 hPa | 0 mm | - | 169 W/m² | - |
* Rain latest hour (hover to see other rain measurements)
** Current wind speed in m/s (hover to see current wind gust speed)